Regional Weather Roundup
Issued by NWS Wakefield, VA

Home | Current Version | Previous Version | Text Only | Print | Product List | Glossary On
Versions: 1 2 3 4 5 6 7 8 9 10 11 12 13 14 15 16 17 18 19 20 21 22 23 24 25 26 27 28 29 30 31 32 33 34 35 36 37 38 39 40 41 42 43 44 45 46 47 48 49
000
ASUS41 KAKQ 300810
RWRAKQ

REGIONAL WEATHER ROUNDUP
NATIONAL WEATHER SERVICE WAKEFIELD VA
300 AM EST FRI JAN 30 2015

Note: "fair" indicates few or no clouds below 12,000 feet with no
significant weather and/or obstructions to visibility. * = Denotes
station may not report precipitation (e.g., rain,snow,etc.),
thunder or fog.

VAZ042-051-052>054-056-300900-
NORTHERN VIRGINIA

CITY           SKY/WX    TMP DP  RH WIND       PRES   REMARKS
WASH NATIONAL  CLOUDY    40  25  55 CALM      29.94S
DULLES         CLOUDY    35  24  64 CALM      29.93R
FORT BELVOIR   CLOUDY    35  28  74 CALM      29.94R
QUANTICO       CLOUDY    39  24  55 NW5       29.95R
FREDERICKSBRG* CLOUDY    41  26  55 NW5       29.93R
STAFFORD*      CLOUDY    40  22  50 CALM      29.97R
WARRENTON      CLOUDY    37  31  80 CALM      29.92S
CULPEPER*      CLOUDY    36  28  75 N3        29.93S
MANASSAS*      CLOUDY    36  30  80 CALM      29.94R
LEESBURG*      CLOUDY    41  34  75 NW16G28   29.92S
WINCHESTER     CLOUDY    39  27  60 NW20      29.92S
FRONT ROYAL*   CLOUDY    39  30  70 NW7       29.92S
LURAY*         CLOUDY    43  32  65 NW7       29.92S
$$

VAZ048-049-060>072-079>083-300900-
CENTRAL AND SOUTH CENTRAL VIRGINIA

CITY           SKY/WX    TMP DP  RH WIND       PRES   REMARKS
RICHMOND       CLOUDY    41  25  53 SW5       29.92F
CHESTERFIELD*  CLOUDY    41  18  38 W6        29.94F
PETERSBURG*    CLOUDY    38  26  60 CALM      29.94F
HANOVER        CLOUDY    40  24  53 SW6       29.93F
TAPPAHANNOCK*  CLOUDY    43  19  39 SW8       29.92S
QUINTON*       CLOUDY    40  24  51 SW3       29.92F
CHARLOTTSVILLE CLOUDY    40  27  59 CALM      29.91R
GORDONSVILLE*  CLOUDY    34  26  74 CALM      29.91S
ORANGE*        CLOUDY    36  30  80 N5        29.94R
LOUISA*        CLOUDY    37  27  65 CALM      29.90R
BUMPASS*       CLOUDY    38  25  59 CALM      29.91S
FARMVILLE*     CLOUDY    42  27  54 SW3       29.92S
CREWE*         CLOUDY    41  25  53 W5        29.92F
FORT PICKETT*  CLOUDY    40  26  56 SW9       29.92F
CHASE CITY*    CLOUDY    38  32  78 CALM      29.94S
CLARKSVILLE*   CLOUDY    37  28  70 SW6       29.94F
SOUTH HILL*    CLOUDY    41  26  53 SW8       30.00S
LAWRENCEVILLE* CLOUDY    38  26  64 SW3       29.94S
EMPORIA*       MOCLDY    36  27  69 S3        29.97S
$$

VAZ088>098-300900-
SOUTHEAST VIRGINIA

CITY           SKY/WX    TMP DP  RH WIND       PRES   REMARKS
NORFOLK        CLOUDY    42  27  55 SW9       29.94F
VIRGINIA BEACH CLOUDY    44  30  57 SW13      29.94F
NORFOLK NAVAL  CLOUDY    47  29  49 SW9       29.95F
WEST POINT*    CLOUDY    44  22  41 SW8       29.93F
SALUDA*        CLOUDY    41  23  48 SW5       29.91F
NEWPORT NEWS   MOCLDY    44  27  51 SW8       29.94F
LANGLEY AFB    CLOUDY    44  27  52 SW14      29.93F
FORT EUSTIS    CLOUDY    42  29  59 W5        29.92F
WILLIAMSBURG*    N/A     45  27  49 W8        29.94F
HR EXEC AP*    CLOUDY    43  28  56 SW9       29.97F
FRANKLIN*      CLOUDY    41  29  62 SW6       29.95F
WAKEFIELD      CLOUDY    42  25  50 SW7       29.94F
$$

VAZ020-022-025-037-045-300900-
WEST CENTRAL AND SOUTHWEST VIRGINIA

CITY           SKY/WX    TMP DP  RH WIND       PRES   REMARKS
STAUNTON*      CLOUDY    41  26  54 NW7       29.94R
WAYNESBORO*    CLOUDY    41  27  58 W9G18     29.92R
HOT SPRINGS VA CLOUDY    27  26  96 W28G40    29.82F WCI  12
LYNCHBURG      CLOUDY    42  33  70 VRB7      29.96R
DANVILLE       CLOUDY    43  26  51 SW7       29.97S
SOUTH BOSTON*  CLOUDY    43  26  50 SW6       29.95S
MARTINSVILLE   CLOUDY    45  33  61 NW15G23   30.00S
ROANOKE        CLOUDY    41  27  57 W16G25    30.01R
BLACKSBURG     CLOUDY    33  27  79 NW14G21   30.01S WCI  23
DUBLIN*        CLOUDY    36  30  78 W12G26    30.01S
MARION*        CLOUDY    34  27  74 W22G32    30.04R WCI  22
HILLSVILLE*    CLOUDY    34  28  80 NW14G21   29.97S WCI  24
RICHLANDS*     CLOUDY    31  26  84 NW12G23   30.06S WCI  21
WISE*          LGT SNOW  30  30 100 NW14G21   30.11R WCI  20
ABINGDON*      CLOUDY    36  29  76 NW15G22   30.09S
$$

MDZ021>025-VAZ099-100-300900-
SOUTHERN MARYLAND AND THE DELMARVA PENINSULA

CITY           SKY/WX    TMP DP  RH WIND       PRES   REMARKS
PATUXENT RIVER CLOUDY    41  21  44 W8        29.91R
BAY BRIDGE APT   N/A     36  30  80 CALM      29.92S
LEONARDTOWN    CLOUDY    39  23  52 W6        29.92S
DOVER          NOT AVBL
GEORGETOWN     CLOUDY    40  23  50 SW7       29.91S
EASTON         CLOUDY    39  29  67 W3        29.95S
CAMBRIDGE      CLOUDY    37  28  70 CALM      29.91R
SALISBURY      CLOUDY    43  24  47 SW9       29.90F
OCEAN CITY     CLOUDY    39  29  67 SW13      29.91F
WALLOPS ISLAND CLOUDY    38  30  73 SW7       29.91F
ACCOMACK*      CLOUDY    43  25  49 SW12G17   29.91F
$$

NCZ012>017-030>032-300900-
NORTH CENTRAL AND EASTERN NORTH CAROLINA

CITY           SKY/WX    TMP DP  RH WIND       PRES   REMARKS
ROANOKE RAPIDS CLOUDY    37  30  75 SW6       29.96F
RALEIGH        MOCLDY    38  26  62 SW5       29.97F
ELIZABETH CITY CLOUDY    44  35  70 SW10      29.97F
AHOSKIE*         N/A     39  32  74 SW5       29.96F
EDENTON*       CLOUDY    46  38  74 SW7       29.98F
CURRITUCK*     CLOUDY    45  32  62 SW7       29.97F
KILL DEVIL HLS CLOUDY    47  38  69 SW7       29.97F
MANTEO         CLOUDY    46  37  71 SW9       29.99F
CAPE HATTERAS  CLOUDY    50  44  80 W9        30.01F
TARBORO*       FAIR      40  33  76 CALM      29.98F
GOLDSBORO      MOCLDY    45  44  98 SW6       29.96F
WASHINGTON     MOCLDY    44  36  74 S3        29.98F
GREENVILLE     CLOUDY    46  37  71 SW10      29.98F
NEW BERN       CLOUDY    51  40  65 SW10      30.01F
WILMINGTON     CLOUDY    49  45  86 SW6       30.02F
$$

VAZ048-300900-
ELSEWHERE

CITY           SKY/WX    TMP DP  RH WIND       PRES   REMARKS
HARRISBURG PA  FLURRIES  28  25  88 NW10      29.90R WCI  19
BALTIMORE      CLOUDY    33  26  75 W3        29.91S
ANNAPOLIS      CLOUDY    36  26  67 NW5       29.91S
ANDREWS AFB    NOT AVBL
PHILADELPHIA   CLOUDY    35  25  66 S5        29.90F
HENDERSON NC   CLOUDY    38  25  59 SW8       29.96S
GREENSBORO     CLOUDY    42  26  53 W8        29.97S
ROCKY MOUNT    PTCLDY    39  32  76 S6        29.97F
$$

VAZ100-300900-
MARINE

STATION/POSITION TIME  TEMP    WIND        PRES    WAVE   SWELL
                       AIR SEA DIR/SP/G            HT/PER HT/PER
                 (UTC) (F)     (DEG/KT/KT) (MB)    (FT/S) (FT/S)
BRANDYWINE LGT   0800          220/  9/ 10   N/A
CAPE MAY NJ      0800   38 36              1012.0F
LEWES DE         0800   40 36  240/  4/  7 1012.4F
15NM E FENWICK I 0800   42 40              1011.8F   5/ 5
OCEAN-CITY-INLET 0800          230/ 10/ 12   N/A
WACHAPREAGUE VA  0800   38 36  210/  8/ 11 1012.8F
THOMAS POINT MD  0800   37 35  290/  8/  9 1014.0S
GOOSES REEF MD   0800   40     VRB 14/ 16  1011.5F
COVE POINT MD    0800   40     270/ 16/ 21 1012.0S
SOLOMONS ISLAND  0800      37                N/A
BISHOPS HEAD MD  0800   37 34  220/  8/  9 1012.1S
PINEY POINT MD   0800          310/  7/  8   N/A
POTOMAC MD       0800   41     280/  8/ 10 1011.7F
CAMBRIDGE MD     0800   38 35  250/  3/  3 1012.8S
LEWISETTA VA     0800   42 36  250/ 12/ 14 1012.2S
RAPPAHANNOCK LGT 0800          190/ 13/ 13 1013.5F
STINGRAY PT      0800   41     250/ 10/ 12 1013.5F
YORK RVR RNG VA  0800   42     250/ 11/ 13 1012.8F
YORKTOWN VA      0800   43 39  230/ 15/ 17 1013.0F
JAMESTOWN VA     0800   40     270/  6/  8   N/A
DOMINION TERM VA 0800   43     220/ 10/ 12 1013.9F
KIPTOPEKE VA     0800      43  210/  7/ 11   N/A
CHES BAY BRIDGE  0800          200/ 16/ 20   N/A
CAPE HENRY VA    0800   44     210/ 10/ 17 1012.4F
CHESAPEAKE LGHT  0700   42     220/ 18/ 19 1015.2F
WILLOUBY STN VA  0800   44     220/ 10/ 12 1014.3F
S CRANEY ISL VA  0800          220/  6/ 10 1013.9S
CAPE HENRY BUOY  0800      42                N/A     3/12   2/12
1ST LANDING BUOY 0800   43     220/ 14/ 16 1013.5F
CAPE CHARLES BUO 0800      41                N/A     3/12   2/12
OFFSHORE WE BUOY 0800      43                N/A     4/ 4   2/12
64NM E OF VA BCH 0800   49 49  230/ 17/ 21 1014.4F   4/ 5   2/11
DUCK PIER NC     0800   45 43  220/ 11/ 13 1014.2F
44100 DUCK FRF   0800      44                N/A     2/12   2/12
44056 DUCK FRF   0800      42                N/A     2/11   2/11
OREGON INLET NC  0800   46 43  220/ 12/ 13 1015.5F
HATTERAS NC      0800   50 44  240/  9/ 12 1016.6F


USA.gov is the U.S. government's official web portal to all federal, state and local government web resources and services.